Wind_Speed
95 93 92 90 89 87 85 82 80 78 78 78 79 80 80 80 80 79 78 76 74 73 71 70 70 69 69 69 69 69 69 69 69 69 70 70 71 72 73 74 75 75 74 74 74 74 74 74 74 75 75 75 74 74 74 73 73 72 72 72 72 71 71 71 71 72 72 73 73 74 74 75 75 75 75 75 75 75 74 74 74 74 74 73 73 73
96 95 93 92 91 89 88 86 83 81 80 80 80 81 81 81 81 80 79 77 75 73 72 71 71 71 70 70 70 70 69 69 69 69 69 70 71 73 75 76 76 76 76 75 75 75 75 75 75 75 75 75 76 75 75 74 74 73 73 73 72 72 71 71 71 72 72 73 73 74 75 75 76 76 76 76 75 75 75 75 74 74 74 74 74 74
97 96 94 93 91 90 90 88 86 84 83 82 82 83 83 83 83 82 81 79 76 74 73 73 73 73 73 72 72 71 70 70 69 69 69 70 72 75 77 78 78 78 77 77 76 76 76 76 76 76 76 76 76 76 75 75 74 74 74 73 73 72 72 71 71 72 72 73 73 74 75 75 76 76 76 76 76 75 75 75 75 75 75 75 74 74
99 98 96 94 93 91 91 90 89 87 86 85 85 85 85 85 85 84 82 80 77 75 75 75 75 75 75 75 74 73 72 71 70 70 71 73 75 77 79 79 79 78 78 77 77 77 76 76 76 76 76 77 76 76 75 75 74 74 74 73 73 72 72 72 72 72 72 73 73 74 75 75 76 76 76 76 76 76 76 76 76 76 75 75 75 75
102 100 99 97 94 93 92 92 91 90 89 89 88 88 87 87 86 85 84 81 79 77 77 77 77 78 77 77 76 75 74 73 72 72 74 76 78 79 80 80 79 78 78 77 77 77 77 77 77 77 77 77 76 76 75 75 74 74 74 74 73 73 72 72 72 72 73 73 73 74 75 75 76 76 77 77 77 77 77 77 76 76 76 76 76 76
104 103 102 100 97 96 95 94 93 93 92 91 91 90 90 89 88 87 85 83 81 80 80 80 80 79 79 78 77 77 76 75 75 76 77 79 80 81 81 81 80 79 78 77 77 77 76 76 76 77 76 76 76 75 75 75 74 74 74 74 74 73 73 73 73 73 73 74 74 75 75 75 76 76 77 77 77 77 78 78 77 77 77 77 77 77
107 106 105 103 101 99 98 97 96 96 95 94 93 93 92 91 90 89 87 86 84 83 82 82 82 81 80 79 78 78 77 78 78 79 80 81 81 82 83 82 81 79 78 78 77 77 77 77 77 77 77 76 76 76 75 75 75 75 75 75 75 75 74 74 75 75 75 75 75 76 76 76 76 77 77 77 78 78 79 79 79 78 78 78 78 78
109 108 107 106 104 103 101 100 99 99 98 97 96 95 94 93 92 91 90 88 87 86 85 84 84 83 81 80 79 79 79 79 80 81 82 82 83 83 84 83 82 81 80 79 78 78 78 78 78 78 78 77 77 77 77 77 77 77 77 77 77 77 77 77 77 77 77 77 77 77 77 77 77 77 78 78 79 79 80 80 80 80 79 79 79 80
111 110 109 109 107 106 104 103 102 102 101 100 99 98 97 96 95 94 93 91 90 88 87 86 86 85 83 81 80 79 80 80 81 82 83 83 84 84 84 84 84 83 81 81 80 80 80 79 79 79 79 79 79 79 79 79 79 79 79 79 79 79 79 79 79 79 79 79 79 79 79 78 78 79 79 79 80 80 80 81 81 81 81 81 81 81
114 113 111 111 110 109 108 107 106 105 104 103 102 101 100 99 97 96 95 94 92 91 89 89 88 87 85 83 82 80 80 80 81 82 83 83 84 84 85 85 84 84 83 82 81 81 81 81 80 80 80 80 80 80 80 80 80 81 81 81 81 81 81 81 81 81 81 81 80 80 80 79 79 79 80 80 81 81 81 81 82 82 82 82 82 82
117 115 114 113 112 111 111 110 109 107 106 105 104 104 102 101 100 99 97 96 95 93 92 91 90 88 87 85 83 82 81 81 82 83 83 84 84 84 85 85 85 84 83 83 82 82 82 81 81 81 80 80 81 81 81 81 81 81 81 82 82 82 82 82 82 82 82 81 81 80 80 80 80 80 80 81 81 81 82 82 82 83 83 83 83 83
120 118 117 115 114 113 112 112 111 110 109 107 107 106 105 104 102 101 100 98 97 96 95 94 92 91 89 88 86 84 83 82 83 84 84 85 85 85 85 85 85 85 84 84 84 83 83 82 82 81 81 81 81 81 81 81 81 81 81 81 82 82 82 82 82 82 82 81 81 81 80 80 80 80 81 81 82 82 82 83 83 83 83 84 84 84
122 121 120 118 117 115 114 114 113 112 111 110 109 108 107 106 104 103 102 101 100 99 97 97 95 94 92 91 89 87 85 84 85 85 86 86 86 86 86 86 86 86 85 85 85 85 84 83 83 82 81 81 81 81 81 81 81 81 81 81 81 82 82 82 82 82 82 81 81 81 81 81 81 81 82 82 82 83 83 83 84 84 84 84 84 84
123 123 122 121 120 119 117 116 115 114 114 113 112 111 110 108 107 105 104 104 103 101 100 99 98 97 95 94 92 90 88 87 86 87 87 88 88 88 88 88 88 88 88 87 87 86 86 85 84 83 83 82 82 81 81 81 81 81 81 81 81 81 81 82 82 82 82 82 82 82 82 82 82 83 83 83 84 84 84 84 85 85 85 85 85 85
124 124 123 123 122 121 120 119 118 117 117 116 115 114 112 111 109 108 107 106 105 104 103 102 101 100 98 97 95 94 92 91 89 89 89 90 90 90 90 90 91 90 90 89 89 88 88 87 86 85 85 84 83 83 83 82 82 82 82 82 82 82 82 82 82 82 82 82 82 82 83 83 83 84 84 84 85 85 85 85 85 85 85 85 85 85
125 124 123 124 124 123 123 122 121 120 119 119 118 116 115 113 112 111 109 108 107 106 105 105 104 103 102 100 98 96 95 94 94 93 93 93 93 93 93 92 93 93 92 91 91 90 90 89 88 88 87 86 86 85 85 84 84 83 83 83 83 83 83 83 83 83 83 83 83 83 83 84 84 85 85 85 85 86 86 86 86 86 86 86 86 86
126 125 124 124 124 124 124 124 123 122 122 121 120 119 118 116 115 114 112 110 109 108 107 107 107 106 105 104 102 100 98 98 97 97 96 95 95 95 94 94 94 94 94 93 93 92 92 91 91 90 89 89 88 88 87 87 86 86 85 85 85 84 84 84 84 84 84 84 84 84 85 85 85 86 86 86 86 86 86 86 86 86 87 87 87 87
128 126 125 125 125 125 125 125 125 125 124 123 122 121 121 120 118 117 115 113 111 110 110 109 109 108 108 107 105 103 102 100 100 99 99 98 97 97 96 96 95 95 95 95 94 94 94 93 93 92 92 91 91 90 90 89 89 88 88 87 87 87 86 86 86 86 85 85 86 86 86 87 87 87 87 87 87 87 87 87 87 88 88 88 88 88
130 128 127 126 125 126 126 126 126 126 126 125 124 124 123 122 121 120 118 116 115 113 112 111 111 111 110 109 108 107 105 103 102 101 101 100 99 99 98 97 97 97 97 96 96 95 95 95 94 94 93 93 93 93 92 92 92 91 91 90 90 89 89 88 88 88 88 88 88 88 88 89 89 89 89 89 89 89 89 89 89 89 89 90 90 90
132 131 129 128 126 125 126 126 127 127 127 127 127 126 126 125 124 123 122 121 119 117 116 115 114 113 112 112 111 110 108 106 105 104 103 102 102 101 101 100 99 98 98 98 97 97 96 96 96 95 95 95 94 94 94 94 94 94 93 93 93 92 92 91 91 90 90 90 90 90 91 91 91 91 91 91 91 91 91 91 91 91 91 92 92 93
134 133 131 130 128 126 125 126 127 128 128 128 128 128 128 127 127 126 125 124 123 122 120 119 118 117 116 115 114 113 111 109 108 107 106 105 104 104 103 102 102 101 101 100 100 99 98 97 97 97 96 96 96 96 95 95 95 95 95 95 95 95 94 94 93 93 93 93 93 93 93 93 94 94 93 93 93 93 93 93 93 93 94 94 95 96
136 135 134 132 130 127 126 126 127 128 128 128 128 129 129 129 129 129 128 128 127 126 125 124 123 122 120 119 117 116 115 113 112 110 109 108 107 107 106 105 105 104 104 103 103 102 101 100 99 98 98 97 97 97 97 97 97 97 97 97 97 97 96 96 96 96 96 96 96 96 96 96 96 96 96 96 96 96 96 96 96 96 97 98 98 99
137 136 135 134 132 130 128 127 127 127 128 128 128 129 129 129 129 130 130 129 129 129 128 128 127 126 124 123 121 120 119 117 116 114 113 111 110 110 109 108 107 107 107 107 106 105 104 103 102 102 101 100 99 99 99 99 98 98 98 98 98 98 98 98 98 98 99 99 99 99 99 99 99 99 98 98 98 98 98 99 99 99 100 101 102 102
139 138 137 135 134 132 130 128 127 127 127 128 128 129 129 129 129 129 129 129 130 130 130 130 129 128 127 126 125 124 122 121 120 118 117 116 115 114 113 111 110 109 110 110 110 109 108 107 107 106 104 103 103 102 102 102 101 101 101 101 101 101 101 101 101 101 101 102 102 102 102 102 101 101 101 101 101 101 101 102 102 103 103 104 105 105
140 139 138 137 136 134 132 130 128 127 127 128 128 128 128 128 128 128 128 128 128 129 129 129 129 129 129 128 127 126 125 124 122 121 120 119 119 118 117 115 113 113 113 113 113 112 111 111 110 109 108 107 107 106 106 105 105 105 105 105 105 104 104 104 104 104 105 105 105 105 105 104 104 104 104 103 104 104 104 105 105 106 106 107 107 108
142 141 140 138 137 136 135 133 130 129 128 128 128 128 128 127 127 127 126 127 127 127 127 128 128 129 129 129 128 127 126 125 124 123 122 121 121 121 120 119 117 116 116 115 115 114 113 113 113 112 111 110 110 109 109 108 108 108 109 108 108 108 108 108 108 108 108 108 108 107 107 107 106 106 106 106 106 107 107 108 108 109 109 109 109 110
143 142 141 140 139 138 137 135 133 130 129 128 128 129 128 128 127 126 126 126 126 126 126 126 127 127 128 127 127 127 126 126 125 124 123 122 122 122 121 121 120 119 118 118 117 116 115 115 115 114 113 112 112 111 111 111 111 111 111 112 112 112 112 111 111 111 111 111 110 110 110 109 109 109 109 109 109 110 110 110 111 111 111 112 112 112
145 144 143 142 141 140 139 137 135 133 130 129 129 129 129 128 127 127 127 127 127 126 126 126 126 126 126 126 126 126 126 125 124 124 123 122 122 122 122 122 121 120 119 119 119 119 117 117 116 116 115 114 114 113 113 113 113 113 114 114 114 114 115 114 114 114 114 113 113 112 112 111 111 111 111 112 112 112 112 113 113 113 113 113 114 114
146 145 144 143 142 141 140 139 138 135 133 131 130 129 129 129 128 128 129 129 128 127 126 127 127 127 126 126 126 125 125 124 124 124 123 122 122 122 123 122 121 121 120 120 120 120 119 118 118 117 116 116 116 115 115 115 115 115 115 116 116 117 117 116 116 116 116 115 115 114 114 114 114 114 114 114 114 115 115 115 115 115 115 115 115 115
147 146 146 145 144 143 142 140 139 137 135 133 131 130 130 130 129 129 130 129 128 127 127 128 128 128 127 127 126 125 125 125 124 124 123 122 121 122 123 122 121 121 121 120 120 120 120 120 119 118 118 117 117 117 117 117 117 117 117 118 118 118 118 118 118 118 117 117 116 116 116 116 115 116 116 116 117 117 117 117 117 117 116 116 117 117
147 147 147 147 146 145 143 142 141 139 137 135 133 131 130 130 130 130 130 130 129 128 128 128 129 128 128 127 126 126 126 126 125 124 123 121 121 122 123 122 121 121 121 120 120 119 120 120 120 119 119 118 118 118 118 118 118 118 118 119 119 119 119 119 119 119 119 118 118 118 117 117 117 117 118 118 118 118 118 118 118 118 117 117 117 117
148 148 148 148 147 146 145 144 142 141 139 137 135 133 131 131 130 130 130 130 130 129 129 129 129 129 128 128 127 127 127 127 126 125 123 122 122 123 123 122 121 121 122 121 120 119 120 120 120 120 119 119 119 119 119 119 119 119 120 120 120 120 120 120 120 119 119 119 119 118 118 118 118 119 119 119 119 119 119 119 119 118 118 118 117 117
147 148 148 148 148 148 147 145 143 142 140 139 137 135 133 132 131 131 131 131 130 130 130 129 129 129 129 128 128 128 128 127 127 125 124 123 123 123 123 122 121 121 122 121 121 120 120 121 121 121 120 120 120 120 120 121 120 120 121 120 121 121 121 120 120 119 119 119 119 119 119 119 119 119 119 119 119 119 119 119 118 118 117 117 117 116
146 147 148 148 149 148 147 146 144 143 142 141 139 137 135 133 132 131 131 131 131 130 130 129 129 129 129 128 128 128 128 128 127 126 125 124 123 123 123 123 122 122 122 121 121 121 121 121 122 121 122 122 122 122 122 122 122 122 121 121 121 121 121 120 120 119 119 119 119 118 118 119 119 119 119 119 119 119 119 118 118 117 117 116 115 115
144 146 147 148 148 148 148 146 145 144 143 142 141 139 137 135 133 132 132 131 131 131 130 130 129 129 129 128 128 128 128 128 128 127 126 124 124 124 124 123 123 122 122 121 121 121 121 122 122 122 122 122 123 123 123 123 122 122 122 121 121 120 120 120 119 119 118 118 118 118 118 118 118 118 118 118 118 118 117 117 117 116 115 115 114 114
142 144 145 147 147 148 147 146 145 144 144 143 142 141 139 137 135 134 133 132 132 131 130 130 130 129 129 128 128 127 127 128 128 127 126 125 124 124 124 123 123 122 121 121 121 121 121 121 122 122 122 122 122 122 123 123 122 122 121 121 121 120 120 119 119 118 118 118 118 118 118 118 118 118 118 118 117 117 116 116 115 115 114 114 113 113
139 141 143 145 146 146 146 146 145 145 144 144 143 142 141 139 137 135 134 133 133 132 131 130 130 130 129 128 128 127 127 127 127 126 125 125 124 124 123 123 123 122 121 121 121 121 121 121 121 121 121 121 121 121 121 122 121 121 120 120 120 119 119 118 118 118 117 117 117 117 117 117 117 117 117 117 117 116 116 115 115 114 113 113 112 112
136 138 140 142 144 144 145 145 145 144 144 144 144 143 142 141 139 137 136 134 133 132 132 131 130 130 129 128 128 127 127 126 126 125 125 124 124 123 122 122 122 122 121 120 120 120 120 120 120 120 120 120 120 120 120 119 119 118 118 119 118 118 117 117 117 116 116 116 116 117 117 117 117 117 116 116 116 115 115 114 114 113 113 112 112 111
132 134 137 139 141 142 143 143 144 144 144 144 144 144 143 142 141 139 137 136 134 133 132 132 131 130 129 129 128 127 126 126 125 125 124 124 123 122 122 121 121 121 121 120 120 119 119 119 119 119 119 119 118 118 118 117 116 116 116 116 116 116 115 115 115 115 115 115 115 116 116 116 116 116 116 116 115 115 114 114 113 113 112 112 111 111
127 130 133 135 137 139 140 141 142 142 143 143 143 143 143 143 142 141 139 137 136 135 133 132 132 131 130 129 128 127 126 126 125 124 124 123 122 122 121 120 120 120 120 119 119 119 119 119 119 118 118 117 117 116 116 115 115 115 114 114 113 114 114 114 114 114 114 115 115 115 115 116 116 116 115 115 114 114 114 113 113 113 112 111 111 111
123 126 128 131 134 135 137 138 140 140 141 142 142 142 143 143 142 142 141 139 137 136 135 133 132 131 130 130 129 128 127 126 125 124 124 123 122 121 120 120 119 119 119 119 119 119 119 119 119 118 117 116 116 115 115 114 114 114 113 112 113 113 114 114 114 114 114 114 115 115 115 115 115 115 115 115 114 114 114 113 112 112 112 112 111 111
118 121 124 127 129 132 134 135 137 138 139 140 140 141 142 142 142 142 142 140 139 137 136 134 133 132 131 130 129 128 127 126 126 125 124 123 122 121 120 120 119 118 118 118 118 119 120 120 119 118 117 116 115 114 114 114 114 114 113 113 113 113 114 114 114 114 114 114 115 115 115 115 115 115 115 114 114 114 113 113 112 112 112 112 111 111
113 116 119 122 125 127 130 131 133 134 136 137 138 140 141 141 142 142 142 141 140 139 138 136 135 133 132 131 130 129 128 127 126 125 124 123 122 121 120 120 119 118 117 117 117 119 120 120 120 118 117 116 115 114 114 115 115 114 114 113 113 112 112 113 114 115 114 114 115 115 115 115 115 115 114 114 114 114 113 113 112 112 112 112 111 111
108 111 114 117 120 123 125 127 129 131 133 134 136 137 139 140 140 141 141 141 141 140 139 138 136 135 133 132 131 130 129 128 127 126 125 124 123 122 121 120 119 118 117 116 117 118 120 121 120 119 118 116 115 115 115 115 116 115 115 115 114 113 113 114 115 115 115 115 115 115 115 115 115 115 114 114 114 113 113 113 112 112 112 112 112 112
104 107 109 112 115 118 120 123 125 127 129 131 133 135 136 137 138 139 140 141 141 141 140 139 138 136 135 134 133 132 130 129 128 127 126 125 123 122 121 120 119 118 117 117 117 118 119 120 120 120 118 116 115 115 115 116 117 117 117 116 115 115 114 115 115 115 115 115 116 116 116 115 115 115 115 115 114 114 113 113 113 113 113 113 112 112
100 102 105 107 110 113 116 119 121 123 125 127 129 131 133 135 136 137 139 140 140 141 141 140 139 137 136 135 134 133 132 130 129 128 127 125 124 123 122 121 120 119 118 118 118 119 120 121 121 120 118 117 116 116 117 118 119 119 119 118 117 116 116 115 115 116 116 116 116 116 117 116 116 116 116 116 116 116 115 115 114 114 114 114 114 114
98 99 100 103 105 108 111 114 116 119 121 123 126 128 130 132 133 135 137 138 139 140 140 140 139 139 138 137 136 135 133 132 130 129 128 126 125 124 123 122 121 120 119 119 119 120 121 122 122 121 119 118 117 118 119 121 121 121 120 119 118 116 116 116 116 117 117 117 117 117 118 118 118 118 118 118 118 118 118 117 117 116 116 116 116 116
97 97 98 99 101 104 106 109 112 115 117 120 122 124 126 128 130 132 134 136 137 138 139 139 140 139 139 138 138 136 135 134 132 131 129 127 126 125 124 123 122 121 120 120 120 121 122 123 123 122 121 120 119 120 122 124 124 124 122 120 118 117 117 117 118 118 118 118 119 119 119 119 120 120 120 120 120 120 120 119 119 119 119 118 119 119
97 96 96 97 98 100 102 105 108 110 113 115 118 120 123 125 127 129 131 133 135 136 137 139 139 139 139 139 139 138 137 136 134 133 131 129 128 126 125 124 123 122 121 121 122 122 123 124 124 124 123 121 121 122 124 126 126 125 123 121 120 119 118 119 120 120 120 120 120 121 121 122 122 122 122 122 122 122 122 121 121 121 121 121 121 122
97 97 96 96 97 98 99 101 103 106 109 111 114 116 119 121 124 126 128 130 132 134 136 137 138 139 139 139 139 139 138 138 137 135 134 132 130 128 126 125 124 123 122 122 123 123 124 124 125 125 124 123 123 123 124 126 127 126 124 122 121 121 121 121 121 122 122 122 122 123 123 124 124 124 124 124 123 123 124 123 123 124 124 124 124 124
97 97 97 97 97 97 97 98 100 102 104 107 110 112 115 118 120 122 125 127 129 131 133 135 136 137 138 139 139 139 139 139 139 138 137 135 133 131 129 127 126 125 124 123 124 124 124 125 125 125 126 125 125 125 125 126 127 127 126 125 124 124 123 123 123 123 123 123 124 124 125 125 126 126 126 125 125 125 125 125 126 126 126 126 127 127
Wind_Direction
227 228 228 227 226 225 225 224 225 226 228 230 231 233 234 235 236 236 237 237 238 240 241 243 244 244 244 244 244 245 245 246 247 248 249 250 250 251 251 251 251 251 251 252 252 253 254 255 256 257 258 259 260 260 261 262 263 263 264 265 266 267 268 269 270 271 272 273 274 275 276 277 278 278 279 280 281 282 282 283 283 283 284 284 285 285
226 227 228 228 228 227 226 225 225 226 228 229 231 232 234 235 236 236 236 237 237 239 241 243 245 245 245 245 244 244 245 246 246 247 248 249 249 249 249 249 249 250 250 251 252 254 255 256 257 258 259 259 260 261 262 262 263 264 265 265 266 267 268 269 270 271 272 273 274 275 276 277 277 278 279 280 280 281 281 282 282 283 283 284 284 285
226 226 227 228 228 228 227 226 226 226 227 229 230 232 233 234 235 236 236 236 236 238 240 243 245 246 246 246 245 245 245 245 246 247 247 248 248 248 248 248 248 249 250 251 253 254 255 256 257 258 259 260 261 262 262 263 264 265 265 266 267 268 268 269 270 271 271 272 273 275 276 277 277 278 279 279 280 280 281 281 281 282 283 283 284 285
225 226 226 227 227 228 228 227 227 226 227 228 230 231 233 234 235 236 236 235 235 237 239 242 245 246 247 247 246 246 246 246 246 247 247 247 247 247 248 248 248 249 250 252 253 254 256 257 258 259 260 260 261 262 263 264 264 265 266 267 267 268 269 269 270 270 271 272 273 274 275 276 277 278 279 279 280 280 280 281 281 282 282 283 284 284
225 225 226 226 227 227 228 228 227 227 228 229 230 231 232 233 234 235 235 235 235 236 238 241 244 246 247 247 247 247 246 246 246 247 247 247 248 248 249 249 250 250 251 252 254 255 256 257 258 259 260 261 262 263 264 264 265 266 267 267 268 268 269 269 270 270 271 272 273 274 275 276 277 278 278 279 279 279 280 280 281 281 282 283 283 284
226 226 226 226 226 227 227 228 228 228 229 229 230 231 232 233 234 235 235 235 234 235 237 240 242 245 247 248 248 247 247 247 247 247 248 249 249 250 251 252 252 252 253 253 254 255 256 257 258 259 260 261 262 263 264 265 265 266 267 267 268 269 269 269 270 270 271 272 273 273 274 275 276 277 278 278 279 279 280 280 281 281 282 283 283 284
227 226 226 226 226 226 227 228 228 229 230 230 231 231 232 233 234 234 234 234 234 235 236 238 241 243 246 247 248 248 247 247 247 248 249 250 251 252 253 254 254 254 254 255 255 256 257 258 259 260 261 262 263 263 264 265 266 266 267 267 268 269 269 269 270 271 271 272 272 273 274 275 275 276 277 277 278 279 279 280 280 281 282 283 283 284
227 227 227 227 226 227 227 228 229 230 230 231 232 232 233 233 234 234 234 234 234 234 235 237 239 242 244 246 247 248 248 248 248 249 250 251 252 253 255 255 256 256 256 256 257 257 258 259 260 261 261 262 263 264 264 265 265 266 267 267 268 268 269 269 270 271 271 272 272 273 274 274 275 275 276 277 277 278 279 279 280 281 282 282 283 284
228 228 228 227 227 227 227 228 229 230 231 232 233 233 234 234 234 235 235 234 234 234 235 237 239 241 243 245 246 248 248 249 249 250 250 251 252 254 255 256 257 257 257 257 258 258 259 259 260 261 262 263 263 264 264 265 265 266 267 267 268 268 269 270 270 271 271 272 272 273 273 274 274 275 275 276 277 278 278 279 280 281 281 282 283 284
229 229 229 229 228 228 228 229 229 231 232 233 234 234 235 235 235 235 235 235 235 235 236 237 238 240 241 243 245 247 248 249 250 250 251 252 253 254 255 256 256 257 257 258 258 258 259 260 260 261 262 263 263 264 264 265 266 266 267 267 268 269 269 270 270 271 271 272 272 273 273 274 274 275 275 276 276 277 278 279 279 280 281 282 283 283
229 230 230 230 230 229 229 229 230 231 232 233 234 235 236 236 236 236 236 236 236 236 236 237 238 239 240 242 243 245 247 249 250 251 251 252 252 253 254 255 256 257 257 257 258 258 259 259 260 261 262 263 263 264 264 265 266 266 267 268 268 269 270 270 271 271 271 272 272 273 273 274 274 274 275 276 276 277 278 278 279 280 281 282 283 283
230 230 231 231 231 231 230 231 231 232 233 234 235 236 237 237 237 237 237 237 237 237 237 238 238 239 240 241 242 244 246 248 250 251 251 252 252 253 253 254 255 256 256 257 257 257 258 259 260 260 261 262 263 264 264 265 266 266 267 268 269 269 270 270 271 271 271 272 272 273 273 274 274 275 275 276 276 277 277 278 279 280 281 282 282 283
231 231 231 232 232 232 232 232 232 233 233 234 235 236 237 237 238 238 238 238 238 238 238 238 239 240 240 240 241 242 244 247 249 250 251 251 251 252 252 253 254 255 255 256 256 257 257 258 259 260 261 262 262 263 264 265 266 266 267 268 268 269 269 270 270 271 271 272 272 272 273 273 274 274 275 275 276 277 277 278 279 280 280 281 282 283
232 232 232 232 233 233 233 233 233 233 234 235 235 236 237 238 238 238 238 238 238 238 238 239 240 240 240 240 240 241 242 245 247 249 250 250 251 251 252 252 253 254 254 255 256 257 257 258 258 259 260 261 262 263 264 265 265 266 267 267 268 269 269 270 270 270 271 271 272 272 273 273 274 274 275 275 276 276 277 278 279 279 280 281 282 283
232 232 232 233 233 233 234 234 234 234 235 235 236 237 237 238 238 239 239 239 239 239 239 239 240 241 241 241 241 241 241 243 245 247 248 249 249 250 251 251 252 253 254 255 256 256 257 258 258 259 260 261 262 263 264 264 265 266 267 267 268 268 269 269 270 270 271 271 272 272 272 273 273 274 274 275 275 276 277 278 278 279 280 281 281 282
232 233 233 233 234 234 234 235 235 235 236 236 237 237 238 238 239 239 239 239 240 240 240 240 241 241 241 242 242 242 242 242 244 245 246 248 248 249 250 251 252 253 254 255 256 256 257 258 258 259 260 261 261 262 263 264 265 266 266 267 268 268 269 269 270 270 271 271 272 272 272 273 273 273 274 274 275 276 277 277 278 279 280 281 281 282
233 233 233 233 234 234 235 235 236 236 237 237 237 238 238 238 239 239 240 240 240 240 241 241 241 242 242 242 242 243 243 243 244 245 246 247 248 249 250 251 252 253 254 255 255 256 257 258 259 259 260 260 261 262 263 264 265 266 266 267 268 268 269 269 270 270 271 271 272 272 272 272 273 273 273 274 275 276 276 277 278 279 280 280 281 282
233 233 233 234 234 235 235 236 236 237 237 238 238 238 239 239 239 240 240 241 241 241 241 242 242 243 243 243 243 243 244 244 245 246 247 248 249 250 250 251 252 253 253 254 255 256 257 258 258 259 260 260 261 262 263 264 264 265 266 267 267 268 269 269 270 270 271 271 271 272 272 272 273 273 273 274 275 275 276 277 278 279 279 280 281 281
233 234 234 234 234 235 236 236 236 237 237 238 238 239 239 239 240 240 240 241 241 242 242 243 243 243 244 244 244 244 244 245 245 246 247 248 249 250 250 251 252 252 253 254 255 256 257 257 258 259 260 260 261 262 262 263 264 265 266 266 267 268 268 269 270 270 271 271 271 272 272 272 272 273 273 274 275 276 276 277 278 278 279 280 280 281
233 234 234 234 235 235 236 236 237 237 238 238 238 239 239 240 240 240 241 241 242 242 243 243 244 244 245 245 245 245 246 246 246 246 247 248 249 250 251 251 252 253 253 254 255 255 256 257 258 259 259 260 261 261 262 263 264 264 265 266 267 267 268 269 269 270 270 271 271 271 272 272 272 273 274 274 275 276 276 277 278 278 279 279 280 280
234 234 234 235 235 235 236 236 237 238 238 238 239 239 239 240 240 240 241 241 242 242 243 244 244 245 245 246 246 246 246 247 247 247 248 248 249 250 251 251 252 253 253 254 255 255 256 257 258 259 259 260 261 261 262 263 263 264 265 265 266 267 268 268 269 270 270 271 271 271 272 272 273 273 274 275 275 276 276 277 278 278 279 279 279 280
234 234 234 235 235 235 236 237 237 238 238 238 239 239 240 240 240 241 241 242 242 243 243 244 245 245 246 246 247 247 247 248 248 248 249 249 250 250 251 252 252 253 254 254 255 256 256 257 258 258 259 260 261 261 262 263 263 264 265 265 266 267 268 268 269 269 270 270 271 271 272 272 273 274 274 275 276 276 277 277 278 278 278 279 279 280
234 234 235 235 235 235 236 237 237 238 239 239 239 239 240 240 241 241 242 242 242 243 243 244 245 245 246 247 247 248 248 248 249 249 250 250 250 251 252 252 253 253 254 255 256 256 257 257 258 259 259 260 261 262 262 263 264 264 265 265 266 267 267 268 269 269 270 270 271 271 272 272 273 274 275 275 276 276 277 277 278 278 279 279 280 280
234 234 235 235 235 235 236 236 237 238 239 239 240 240 240 241 241 242 242 243 243 243 244 244 245 246 246 247 247 248 248 249 249 250 250 251 251 252 253 253 253 254 255 255 256 257 257 258 258 259 260 260 261 262 263 263 264 264 265 265 266 266 267 268 268 269 269 270 271 271 272 273 273 274 275 276 276 277 277 277 278 278 279 279 280 281
234 235 235 235 235 236 236 236 237 238 239 240 240 241 241 241 242 242 243 243 244 244 244 245 245 246 246 247 247 248 249 249 250 250 251 251 252 253 253 254 254 255 255 256 257 257 258 258 259 260 260 261 262 262 263 264 264 265 265 266 266 266 267 267 268 269 269 270 271 271 272 273 274 274 275 276 276 277 277 277 278 279 279 280 281 281
235 235 235 235 235 236 236 236 236 237 238 240 240 241 241 242 242 243 243 243 244 244 245 245 245 246 246 247 248 248 249 249 250 250 251 251 252 253 254 254 255 255 256 257 257 258 258 259 259 260 261 261 262 263 263 264 264 265 265 266 266 266 267 267 268 268 269 270 271 271 272 273 274 274 275 275 276 276 277 278 278 279 279 280 281 282
235 235 235 235 236 236 236 236 236 237 238 239 240 241 242 242 243 243 243 244 244 245 245 246 246 246 247 247 248 248 249 249 250 250 251 251 252 253 254 254 255 256 256 257 257 258 259 259 260 260 261 262 262 263 263 264 264 265 265 266 266 267 267 268 268 269 269 270 271 272 272 273 274 274 275 275 276 276 277 278 278 279 280 281 281 282
235 235 236 236 236 236 236 237 237 237 237 238 240 241 242 242 243 243 244 244 245 245 246 246 247 247 247 248 248 248 249 249 250 250 251 252 252 253 254 254 255 256 256 257 258 258 259 259 260 260 261 261 262 263 263 264 264 265 266 266 267 267 268 268 269 269 270 271 271 272 273 273 274 274 275 275 276 276 277 278 278 279 280 281 281 282
235 236 236 236 236 236 237 237 237 237 237 238 239 240 241 242 243 243 244 244 245 245 246 247 247 247 248 248 249 249 249 250 250 251 251 252 252 253 254 254 255 256 256 257 258 258 259 259 260 260 261 261 262 263 263 264 265 265 266 267 267 268 268 269 269 270 271 271 272 272 273 274 274 275 275 276 276 277 277 278 279 279 280 281 282 282
236 236 236 236 236 237 237 237 237 237 237 237 238 239 241 242 242 243 244 244 245 245 246 247 247 248 248 249 249 249 250 250 251 251 252 252 253 253 254 255 255 256 256 257 258 258 259 259 260 260 261 261 262 263 263 264 265 265 266 267 268 268 269 270 270 271 271 272 272 273 273 274 274 275 275 276 276 277 277 278 279 279 280 281 282 282
236 236 237 237 237 237 237 237 237 237 238 237 238 238 240 241 242 243 243 244 245 245 246 247 247 248 248 249 249 250 250 250 251 251 252 252 253 253 254 255 255 256 256 257 258 258 259 259 260 261 261 262 262 263 264 264 265 266 266 267 268 269 269 270 271 271 272 272 273 273 274 274 275 275 275 276 276 277 278 278 279 280 280 281 282 283
236 236 237 237 237 237 237 237 238 238 238 238 238 238 239 240 241 242 243 244 244 245 245 246 247 248 248 249 249 250 250 251 251 251 252 252 253 253 254 255 255 256 257 257 257 258 259 260 260 261 261 262 262 263 264 264 265 266 266 267 268 269 269 270 271 271 272 273 273 273 274 274 275 275 276 276 277 277 278 279 279 280 281 282 282 283
236 236 237 237 237 238 238 238 238 238 238 238 238 238 238 239 241 242 243 243 244 245 245 246 247 247 248 249 249 250 250 251 251 252 252 252 253 254 254 255 255 256 257 257 258 258 259 260 260 261 262 262 263 263 264 264 265 266 266 267 268 269 269 270 271 271 272 273 273 274 274 275 275 276 276 277 277 278 278 279 280 281 281 282 283 284
236 236 237 237 238 238 238 238 238 238 239 239 239 239 238 239 240 241 242 243 244 244 245 245 246 247 248 248 249 250 250 251 251 252 252 252 253 254 254 255 255 256 257 257 258 259 259 260 260 261 262 262 263 263 264 264 265 266 266 267 268 269 269 270 271 271 272 272 273 274 274 275 275 276 276 277 277 278 279 280 280 281 282 283 283 284
236 236 237 237 238 238 238 238 238 238 239 239 239 239 239 239 239 240 241 242 243 244 245 245 246 246 247 248 249 249 250 251 251 252 252 253 253 254 254 255 255 256 257 257 258 259 260 260 261 261 262 263 263 264 264 265 265 266 267 267 268 268 269 270 270 271 272 272 273 273 274 274 275 276 276 277 278 278 279 280 281 281 282 283 283 284
236 236 237 237 238 238 238 238 238 239 239 239 239 239 239 239 239 239 240 242 243 243 244 245 246 246 247 247 248 249 250 251 251 252 252 253 253 254 254 255 256 256 257 257 258 259 259 260 261 262 262 263 263 264 265 265 266 266 267 268 268 269 269 270 270 271 271 272 272 273 274 274 275 275 276 277 277 278 279 280 280 281 282 282 283 284
236 236 237 237 238 238 238 238 238 239 239 239 239 239 240 239 239 239 240 241 242 243 244 244 245 246 246 247 248 249 249 250 251 252 252 253 253 254 254 255 256 256 257 257 258 259 259 260 261 261 262 263 263 264 265 266 266 267 267 268 268 269 269 269 270 271 271 272 272 273 273 274 274 275 276 276 277 278 279 279 280 281 281 282 283 283
236 237 237 237 238 238 238 238 239 239 239 239 239 240 240 240 240 239 239 240 241 242 243 244 245 245 246 247 247 248 249 250 250 251 252 252 253 254 254 255 256 256 257 257 258 258 259 260 260 261 262 262 263 264 264 265 266 267 267 268 268 269 269 269 270 270 271 271 272 272 273 273 274 275 275 276 277 278 278 279 280 280 281 282 282 283
236 237 237 237 238 238 238 238 238 239 239 239 239 239 240 240 240 240 239 239 240 241 242 243 244 245 246 246 247 248 248 249 250 251 251 252 253 253 254 254 255 256 256 257 257 258 258 259 260 260 261 262 262 263 264 264 265 266 266 267 268 268 269 269 269 270 270 271 271 272 272 273 274 274 275 276 277 277 278 279 279 280 280 281 281 282
236 237 237 237 238 238 238 238 238 239 239 239 239 240 240 240 240 240 240 239 239 240 241 242 243 244 245 246 246 247 248 248 249 250 251 251 252 253 253 254 255 255 256 256 257 257 258 258 259 259 260 261 261 262 263 263 264 265 265 266 266 267 268 268 269 269 270 270 271 271 272 273 274 274 275 276 276 277 278 278 279 279 280 280 281 281
236 237 237 237 237 238 238 238 238 239 239 239 239 239 240 240 240 240 240 240 239 239 240 241 242 244 244 245 246 246 247 248 248 249 250 251 251 252 253 253 254 254 255 256 256 257 257 257 258 258 259 260 260 261 262 262 263 264 264 265 265 266 267 267 268 268 269 270 270 271 272 272 273 274 275 275 276 276 277 278 278 279 279 280 280 281
237 237 237 237 237 238 238 238 238 239 239 239 239 239 240 240 240 240 240 240 240 239 239 240 241 242 243 244 245 246 246 247 248 248 249 250 250 251 252 252 253 254 254 255 256 256 257 257 257 258 258 259 259 260 261 261 262 262 263 263 264 265 266 266 267 267 268 269 270 270 271 272 273 273 274 275 275 276 276 277 277 278 279 279 280 280
237 237 237 237 237 238 238 238 238 238 239 239 239 239 240 240 240 240 240 240 240 240 239 239 240 241 242 243 244 245 246 246 247 248 248 249 250 250 251 251 252 253 254 254 255 256 256 257 257 257 257 258 258 259 260 260 261 261 262 262 263 263 264 265 266 267 267 268 269 270 271 271 272 273 273 274 275 275 276 276 277 277 278 278 279 279
237 237 237 237 237 238 238 238 238 238 238 239 239 239 239 240 240 240 240 241 241 240 240 239 239 240 241 242 243 244 245 246 246 247 248 248 249 249 250 251 251 252 253 253 254 255 256 256 257 257 257 258 258 258 259 259 260 260 260 261 261 262 263 264 265 266 267 268 269 269 270 271 271 272 273 273 274 274 275 275 276 276 277 278 278 279
237 237 237 237 238 238 238 238 238 238 238 239 239 239 239 240 240 240 240 240 241 241 240 240 239 239 240 241 242 243 244 245 246 246 247 248 248 249 249 250 250 251 252 252 253 254 255 255 256 257 257 257 257 258 258 258 259 259 259 260 261 261 262 264 265 266 266 267 268 269 269 270 270 271 271 272 273 273 274 274 275 275 276 277 277 277
237 237 237 238 238 238 238 238 238 238 238 239 239 239 239 239 240 240 240 240 241 241 241 240 240 239 239 240 241 242 243 244 245 246 246 247 248 248 248 249 250 250 251 251 252 253 254 254 255 256 256 257 257 257 257 257 258 258 259 260 260 261 262 263 264 265 265 266 267 267 268 269 269 270 270 271 271 272 273 273 274 274 275 275 276 276
237 237 238 238 238 238 238 238 238 238 238 238 239 239 239 239 239 240 240 240 240 241 241 241 240 240 239 239 240 241 242 243 244 245 246 246 247 247 248 248 249 249 250 250 251 252 253 254 255 255 256 256 256 256 257 257 257 258 259 260 260 261 262 262 263 264 264 265 265 266 267 268 268 269 269 270 271 271 272 272 273 273 274 274 275 275
237 237 238 238 238 238 238 238 238 238 238 238 239 239 239 239 239 239 240 240 240 240 241 241 241 240 240 240 239 240 240 242 243 244 245 246 246 247 247 248 248 249 249 250 250 251 252 253 254 255 255 255 256 256 257 257 258 258 259 260 260 261 261 262 262 263 263 264 265 265 266 267 267 268 269 270 270 271 272 272 273 273 273 274 274 274
237 237 237 238 238 238 238 238 238 238 238 238 239 239 239 239 239 239 239 240 240 240 241 241 241 241 241 240 240 239 239 240 241 242 244 245 245 246 247 247 248 248 249 249 250 251 252 253 254 254 255 255 255 256 257 258 258 259 260 260 260 260 261 261 262 262 263 263 264 265 266 266 267 267 268 269 270 270 271 271 272 272 273 273 274 274
237 237 237 237 238 238 238 238 238 238 238 238 238 239 239 239 239 239 239 240 240 240 240 241 241 241 241 241 241 240 240 239 240 241 242 243 244 245 246 246 247 248 248 249 249 250 251 252 253 254 254 255 255 256 256 258 259 259 260 260 260 260 260 261 261 262 263 263 264 264 265 266 267 267 268 268 269 270 270 271 271 272 272 273 273 274
237 237 237 237 237 238 238 238 238 238 238 238 238 239 239 239 239 239 239 239 240 240 240 241 241 241 241 241 241 241 240 240 240 240 241 242 243 244 245 245 246 247 247 248 249 250 251 251 252 253 254 255 255 255 256 257 258 259 259 260 260 260 260 260 261 262 262 263 263 264 265 266 266 267 268 268 269 269 270 271 271 272 272 273 273 274
Height
10672 10674 10675 10677 10679 10681 10682 10685 10687 10690 10692 10695 10698 10697 10697 10699 10701 10703 10705 10706 10709 10710 10713 10715 10717 10720 10722 10725 10727 10728 10730 10731 10732 10734 10735 10737 10738 10738 10738 10738 10738 10739 10739 10740 10742 10744 10745 10747 10749 10750 10752 10753 10754 10756 10758 10759 10762 10764 10765 10767 10767 10768 10769 10769 10769 10768 10767 10767 10766 10765 10765 10765 10765 10766 10766 10767 10767 10767 10767 10767 10767 10767 10767 10767 10767 10767
10667 10669 10671 10672 10674 10675 10677 10679 10682 10684 10685 10689 10691 10691 10692 10693 10694 10696 10699 10701 10704 10707 10709 10711 10713 10715 10717 10720 10722 10724 10725 10727 10729 10730 10732 10732 10733 10732 10732 10732 10732 10733 10734 10736 10738 10739 10742 10744 10745 10746 10747 10748 10750 10751 10754 10755 10757 10759 10761 10762 10764 10765 10765 10765 10765 10765 10764 10763 10762 10761 10761 10761 10761 10761 10762 10762 10762 10763 10763 10762 10762 10762 10762 10762 10762 10762
10661 10664 10665 10667 10669 10670 10672 10674 10676 10678 10680 10683 10684 10685 10687 10688 10689 10691 10694 10697 10700 10703 10705 10707 10709 10710 10712 10714 10717 10719 10721 10723 10724 10726 10727 10727 10727 10726 10725 10725 10727 10729 10730 10732 10734 10736 10738 10740 10741 10742 10742 10744 10745 10747 10749 10751 10753 10755 10755 10757 10759 10760 10762 10762 10762 10761 10760 10759 10758 10757 10757 10757 10756 10757 10757 10758 10758 10758 10758 10757 10757 10757 10757 10757 10757 10757
10654 10657 10659 10662 10664 10666 10667 10669 10671 10672 10674 10677 10679 10680 10682 10683 10684 10686 10689 10693 10696 10699 10701 10702 10704 10705 10707 10709 10712 10714 10717 10719 10720 10721 10722 10722 10720 10719 10719 10720 10722 10725 10727 10729 10730 10732 10734 10735 10737 10738 10739 10740 10741 10743 10744 10747 10749 10749 10750 10752 10754 10755 10757 10757 10757 10757 10756 10755 10754 10754 10753 10752 10752 10752 10753 10753 10753 10753 10753 10752 10752 10752 10752 10752 10753 10752
10649 10651 10653 10656 10659 10662 10662 10664 10665 10667 10669 10672 10674 10675 10675 10676 10678 10682 10686 10690 10693 10695 10697 10698 10699 10700 10702 10704 10706 10709 10712 10714 10715 10716 10716 10715 10714 10714 10714 10715 10718 10721 10724 10725 10727 10729 10730 10731 10732 10733 10735 10736 10737 10739 10740 10742 10743 10744 10745 10747 10749 10751 10752 10752 10752 10752 10752 10751 10751 10750 10750 10749 10749 10749 10748 10748 10748 10747 10747 10747 10747 10747 10748 10748 10748 10748
10642 10645 10647 10651 10654 10655 10657 10659 10660 10661 10663 10666 10667 10667 10667 10669 10672 10675 10680 10685 10688 10690 10692 10693 10695 10695 10697 10699 10701 10704 10707 10709 10710 10711 10710 10710 10709 10709 10710 10712 10715 10718 10720 10722 10723 10725 10726 10727 10728 10729 10731 10732 10732 10734 10735 10737 10738 10739 10740 10742 10744 10745 10746 10747 10747 10747 10747 10747 10747 10747 10747 10745 10745 10744 10744 10743 10743 10742 10742 10742 10742 10742 10743 10743 10743 10743
10636 10640 10643 10645 10647 10649 10651 10653 10654 10655 10657 10659 10660 10661 10662 10664 10667 10670 10673 10677 10680 10684 10686 10689 10690 10691 10693 10694 10696 10699 10701 10703 10705 10705 10705 10705 10705 10706 10706 10708 10710 10714 10715 10717 10719 10720 10722 10723 10724 10725 10726 10727 10729 10730 10732 10732 10734 10735 10735 10737 10739 10740 10740 10741 10742 10742 10742 10742 10742 10742 10742 10742 10741 10740 10740 10739 10739 10738 10738 10737 10737 10738 10738 10739 10739 10739
10630 10634 10637 10640 10642 10644 10646 10647 10649 10649 10650 10652 10654 10656 10657 10659 10662 10665 10667 10670 10674 10678 10680 10684 10685 10687 10689 10690 10692 10694 10695 10697 10699 10700 10700 10701 10702 10703 10703 10704 10705 10709 10711 10713 10715 10716 10717 10719 10720 10721 10722 10723 10725 10726 10727 10728 10729 10730 10731 10732 10734 10734 10735 10735 10736 10737 10737 10737 10738 10738 10738 10738 10737 10737 10735 10735 10734 10734 10734 10733 10733 10733 10734 10734 10734 10734
10624 10627 10630 10633 10636 10639 10640 10642 10643 10644 10645 10647 10648 10650 10652 10655 10657 10659 10662 10665 10669 10673 10675 10678 10680 10682 10684 10685 10687 10689 10690 10692 10693 10694 10695 10697 10698 10699 10699 10699 10700 10703 10705 10707 10709 10711 10712 10714 10715 10716 10717 10719 10720 10721 10722 10723 10724 10725 10726 10727 10729 10729 10730 10730 10731 10732 10732 10732 10733 10733 10734 10733 10733 10732 10732 10730 10730 10729 10729 10729 10729 10729 10729 10729 10729 10729
10618 10620 10623 10626 10629 10632 10634 10635 10637 10639 10641 10642 10643 10644 10647 10650 10652 10655 10658 10660 10663 10667 10670 10673 10675 10677 10679 10681 10683 10684 10685 10686 10687 10689 10690 10691 10692 10693 10694 10694 10695 10698 10700 10702 10704 10705 10707 10708 10710 10711 10712 10714 10715 10716 10717 10718 10719 10720 10720 10722 10723 10724 10725 10725 10726 10726 10727 10727 10727 10728 10729 10729 10729 10728 10727 10726 10725 10725 10725 10724 10724 10724 10724 10724 10724 10724
10612 10615 10617 10620 10623 10626 10629 10630 10631 10634 10637 10639 10639 10640 10642 10645 10647 10650 10654 10655 10657 10662 10665 10667 10669 10670 10673 10675 10677 10679 10680 10681 10682 10683 10685 10686 10687 10688 10689 10689 10690 10692 10695 10697 10699 10700 10702 10703 10705 10706 10707 10709 10710 10710 10712 10713 10714 10715 10715 10716 10717 10718 10719 10720 10720 10720 10721 10722 10722 10723 10724 10724 10724 10723 10722 10721 10720 10720 10720 10720 10720 10720 10720 10719 10719 10719
10605 10608 10611 10614 10617 10620 10623 10625 10626 10629 10632 10635 10635 10636 10637 10639 10642 10645 10649 10650 10652 10656 10659 10660 10662 10665 10667 10669 10671 10673 10675 10675 10677 10677 10679 10680 10682 10683 10684 10684 10685 10687 10689 10691 10693 10695 10696 10698 10700 10701 10702 10704 10704 10705 10707 10707 10709 10709 10710 10711 10712 10712 10714 10714 10715 10715 10716 10717 10717 10718 10718 10718 10718 10717 10717 10716 10716 10715 10715 10715 10715 10715 10715 10714 10714 10714
10597 10601 10604 10608 10611 10614 10617 10620 10622 10624 10627 10628 10629 10630 10631 10633 10635 10639 10642 10644 10647 10650 10652 10654 10656 10659 10660 10663 10665 10667 10669 10670 10670 10672 10674 10675 10676 10677 10679 10679 10680 10682 10684 10685 10687 10689 10690 10693 10695 10696 10697 10699 10699 10700 10702 10702 10704 10704 10705 10706 10707 10707 10708 10709 10709 10710 10711 10712 10712 10713 10713 10713 10712 10712 10712 10711 10711 10710 10710 10710 10710 10710 10710 10710 10709 10709
10590 10594 10598 10602 10604 10607 10610 10614 10616 10618 10620 10620 10622 10623 10625 10627 10631 10634 10637 10639 10641 10644 10646 10649 10650 10652 10654 10657 10660 10662 10663 10664 10665 10666 10668 10669 10670 10672 10674 10674 10675 10676 10678 10680 10682 10683 10685 10687 10689 10690 10692 10693 10694 10695 10697 10698 10699 10699 10700 10701 10702 10702 10703 10704 10704 10705 10705 10707 10707 10707 10707 10707 10707 10707 10707 10706 10706 10706 10705 10705 10705 10705 10705 10705 10705 10704
10584 10587 10591 10594 10597 10600 10604 10607 10610 10611 10612 10614 10616 10618 10620 10624 10627 10629 10631 10632 10634 10637 10641 10644 10644 10645 10648 10651 10654 10655 10657 10659 10659 10660 10662 10662 10664 10667 10669 10670 10670 10670 10672 10675 10676 10677 10679 10682 10684 10685 10687 10688 10689 10690 10692 10692 10693 10694 10695 10695 10697 10697 10698 10699 10699 10700 10700 10701 10702 10702 10702 10702 10702 10702 10702 10701 10701 10701 10700 10701 10701 10701 10701 10700 10700 10700
10577 10580 10584 10587 10590 10593 10596 10599 10602 10605 10606 10608 10610 10614 10617 10619 10620 10622 10624 10626 10628 10631 10636 10638 10639 10640 10642 10645 10647 10650 10652 10653 10654 10654 10655 10657 10659 10661 10664 10665 10665 10665 10667 10669 10671 10672 10674 10677 10679 10680 10681 10683 10684 10685 10686 10687 10688 10689 10689 10690 10691 10692 10692 10693 10694 10694 10694 10695 10695 10696 10697 10697 10697 10697 10696 10696 10696 10696 10696 10696 10696 10696 10695 10695 10695 10695
10570 10574 10578 10580 10583 10586 10589 10592 10595 10598 10599 10602 10605 10607 10610 10612 10613 10615 10618 10620 10623 10626 10629 10630 10632 10634 10636 10639 10642 10645 10647 10649 10649 10649 10650 10652 10653 10655 10658 10660 10660 10660 10662 10664 10666 10667 10669 10671 10674 10675 10676 10677 10678 10679 10680 10681 10682 10683 10684 10685 10685 10686 10687 10687 10687 10688 10689 10689 10690 10690 10690 10690 10690 10690 10690 10690 10691 10691 10691 10691 10691 10691 10690 10690 10690 10690
10563 10567 10570 10574 10577 10579 10582 10585 10588 10591 10593 10596 10599 10601 10604 10605 10608 10610 10613 10615 10617 10620 10622 10624 10626 10629 10630 10633 10635 10638 10641 10644 10644 10644 10645 10647 10647 10649 10652 10654 10655 10655 10657 10659 10660 10662 10664 10665 10668 10670 10671 10672 10672 10674 10674 10675 10676 10677 10678 10679 10679 10680 10681 10682 10682 10683 10683 10683 10684 10684 10684 10684 10684 10685 10685 10685 10686 10686 10686 10686 10686 10686 10685 10685 10685 10684
10555 10559 10563 10566 10569 10572 10575 10578 10580 10583 10587 10589 10591 10594 10597 10599 10602 10605 10607 10609 10612 10614 10616 10618 10620 10622 10625 10627 10629 10631 10635 10638 10639 10638 10640 10640 10642 10644 10646 10649 10650 10650 10652 10653 10655 10657 10659 10660 10662 10664 10666 10667 10668 10669 10669 10670 10670 10671 10672 10673 10674 10675 10675 10676 10677 10677 10677 10677 10677 10678 10678 10678 10679 10679 10679 10680 10680 10680 10681 10681 10681 10680 10680 10680 10679 10679
10547 10551 10555 10559 10562 10565 10569 10570 10572 10575 10579 10581 10584 10587 10590 10592 10595 10598 10601 10603 10605 10607 10609 10612 10614 10616 10618 10620 10623 10625 10629 10632 10633 10633 10634 10634 10636 10638 10640 10643 10644 10645 10646 10647 10650 10652 10654 10655 10656 10658 10660 10662 10663 10664 10664 10665 10665 10666 10667 10667 10668 10669 10669 10670 10670 10670 10671 10672 10672 10672 10672 10672 10672 10673 10674 10674 10675 10675 10675 10675 10675 10675 10675 10674 10674 10673
10540 10544 10548 10552 10555 10559 10562 10563 10564 10567 10570 10574 10578 10581 10583 10585 10587 10591 10594 10597 10599 10602 10603 10605 10607 10609 10611 10614 10616 10619 10621 10625 10627 10627 10627 10629 10631 10633 10635 10637 10639 10640 10640 10642 10644 10646 10649 10650 10650 10652 10654 10656 10657 10658 10659 10660 10660 10661 10662 10662 10662 10663 10664 10664 10664 10664 10665 10665 10665 10665 10666 10666 10667 10667 10668 10669 10669 10669 10670 10670 10670 10670 10669 10669 10668 10667
10532 10537 10540 10544 10548 10552 10555 10555 10556 10559 10562 10567 10570 10573 10575 10577 10580 10583 10586 10589 10592 10595 10597 10599 10600 10602 10604 10607 10609 10612 10614 10618 10620 10622 10622 10625 10626 10627 10629 10632 10634 10635 10635 10636 10638 10640 10642 10644 10645 10646 10647 10649 10651 10652 10654 10654 10655 10655 10656 10656 10656 10657 10657 10657 10658 10658 10659 10659 10659 10659 10660 10660 10661 10662 10662 10663 10663 10664 10664 10664 10664 10664 10663 10662 10662 10661
10525 10529 10532 10537 10541 10545 10547 10549 10550 10552 10555 10559 10562 10564 10566 10570 10573 10576 10579 10582 10585 10588 10590 10592 10594 10596 10599 10601 10604 10605 10608 10611 10614 10616 10619 10620 10620 10620 10622 10626 10629 10630 10630 10630 10632 10634 10637 10638 10639 10640 10642 10643 10645 10646 10647 10648 10649 10649 10649 10650 10650 10650 10651 10651 10652 10652 10652 10652 10653 10653 10654 10654 10655 10656 10657 10657 10657 10658 10658 10658 10657 10657 10656 10656 10655 10655
10518 10522 10525 10530 10534 10537 10540 10542 10544 10546 10548 10550 10554 10556 10559 10564 10567 10570 10573 10575 10578 10581 10584 10586 10589 10592 10594 10595 10597 10599 10602 10605 10608 10611 10614 10614 10614 10614 10617 10621 10624 10625 10624 10624 10626 10629 10630 10631 10632 10634 10635 10637 10638 10639 10640 10641 10642 10642 10643 10644 10644 10644 10645 10645 10645 10646 10647 10647 10647 10647 10648 10649 10650 10650 10650 10651 10651 10651 10651 10651 10650 10650 10650 10649 10649 10649
10510 10514 10518 10522 10527 10530 10533 10536 10539 10540 10541 10543 10545 10549 10553 10557 10560 10564 10566 10569 10572 10574 10577 10580 10583 10585 10586 10588 10590 10594 10595 10599 10602 10605 10607 10608 10609 10610 10612 10615 10618 10619 10619 10619 10620 10623 10624 10625 10625 10627 10630 10632 10632 10632 10633 10634 10635 10635 10636 10637 10637 10638 10639 10639 10640 10640 10640 10641 10641 10642 10642 10643 10644 10644 10645 10645 10645 10645 10644 10644 10644 10644 10643 10643 10643 10643
10503 10507 10510 10515 10519 10523 10527 10530 10533 10535 10535 10537 10539 10542 10546 10550 10554 10557 10560 10562 10565 10567 10569 10572 10575 10576 10577 10580 10585 10589 10590 10592 10595 10599 10601 10602 10603 10604 10606 10609 10612 10613 10613 10614 10615 10616 10618 10619 10619 10620 10623 10625 10626 10626 10627 10627 10628 10629 10629 10629 10630 10631 10632 10633 10634 10634 10635 10635 10635 10636 10637 10638 10638 10639 10639 10639 10638 10638 10637 10637 10637 10637 10637 10637 10637 10637
10495 10499 10503 10507 10512 10516 10520 10524 10527 10529 10531 10531 10532 10535 10539 10543 10547 10550 10553 10554 10556 10559 10562 10564 10567 10569 10571 10575 10579 10582 10584 10586 10589 10592 10595 10596 10597 10599 10599 10602 10605 10607 10608 10607 10607 10609 10612 10613 10614 10614 10616 10618 10619 10620 10620 10621 10622 10622 10622 10623 10623 10624 10625 10626 10627 10628 10629 10629 10630 10630 10631 10632 10632 10632 10632 10632 10632 10631 10631 10631 10631 10631 10630 10630 10630 10630
10488 10491 10495 10499 10504 10508 10512 10516 10520 10524 10526 10527 10527 10529 10532 10536 10540 10543 10544 10546 10549 10553 10555 10557 10559 10562 10565 10568 10571 10573 10576 10580 10583 10586 10588 10590 10592 10592 10592 10595 10597 10600 10602 10601 10600 10602 10605 10607 10609 10609 10609 10610 10612 10613 10614 10614 10615 10615 10616 10616 10616 10617 10618 10619 10620 10622 10622 10623 10624 10624 10625 10625 10625 10625 10625 10625 10625 10624 10624 10624 10624 10624 10624 10624 10624 10623
10480 10484 10487 10491 10495 10500 10504 10509 10513 10517 10520 10522 10522 10524 10526 10530 10533 10535 10536 10539 10544 10548 10550 10550 10552 10554 10557 10560 10564 10567 10570 10574 10576 10579 10581 10585 10586 10586 10585 10589 10591 10594 10595 10595 10595 10596 10599 10600 10602 10602 10604 10604 10605 10606 10607 10608 10609 10609 10610 10610 10610 10610 10611 10612 10613 10614 10615 10616 10617 10617 10618 10619 10619 10619 10618 10618 10617 10617 10617 10617 10617 10617 10617 10617 10617 10616
10473 10477 10480 10484 10487 10492 10497 10501 10505 10510 10514 10517 10518 10519 10520 10523 10525 10528 10530 10532 10537 10542 10544 10544 10545 10547 10550 10555 10558 10561 10563 10565 10567 10571 10575 10579 10580 10579 10579 10582 10585 10587 10588 10590 10591 10592 10591 10591 10593 10595 10597 10598 10599 10600 10600 10601 10602 10602 10603 10603 10604 10604 10604 10605 10605 10607 10607 10609 10609 10610 10610 10611 10611 10611 10610 10610 10610 10610 10610 10610 10610 10610 10610 10610 10610 10609
10465 10468 10472 10475 10479 10484 10489 10494 10498 10503 10507 10510 10513 10514 10514 10516 10518 10520 10523 10527 10530 10534 10535 10537 10538 10540 10544 10549 10552 10554 10555 10556 10559 10564 10570 10573 10573 10571 10572 10575 10579 10579 10580 10582 10584 10584 10584 10584 10585 10588 10591 10592 10593 10593 10594 10594 10595 10596 10596 10597 10597 10597 10598 10598 10599 10599 10600 10601 10602 10602 10603 10603 10603 10603 10602 10602 10602 10602 10602 10603 10604 10604 10604 10604 10603 10602
10457 10460 10464 10467 10470 10475 10480 10485 10491 10495 10500 10504 10507 10509 10510 10510 10511 10514 10516 10520 10523 10526 10529 10530 10532 10535 10537 10541 10544 10545 10547 10549 10553 10558 10563 10566 10566 10565 10566 10569 10572 10572 10572 10575 10576 10577 10577 10577 10578 10580 10584 10586 10587 10586 10587 10588 10589 10590 10590 10590 10590 10591 10591 10591 10592 10593 10593 10594 10594 10594 10595 10595 10595 10595 10594 10594 10594 10594 10595 10595 10596 10596 10597 10596 10596 10595
10449 10452 10455 10459 10462 10466 10472 10478 10483 10488 10492 10496 10500 10502 10504 10505 10505 10507 10509 10512 10515 10519 10522 10524 10526 10529 10530 10533 10535 10538 10540 10543 10547 10551 10555 10558 10559 10559 10560 10563 10565 10566 10567 10568 10569 10570 10572 10572 10572 10573 10575 10578 10579 10580 10580 10581 10582 10583 10584 10584 10584 10585 10585 10585 10586 10586 10586 10586 10587 10587 10587 10587 10587 10587 10586 10586 10587 10587 10587 10588 10588 10589 10589 10589 10589 10588
10440 10444 10447 10449 10453 10457 10464 10469 10475 10480 10484 10488 10492 10495 10498 10500 10500 10501 10502 10505 10508 10512 10515 10517 10520 10522 10524 10526 10529 10532 10535 10537 10539 10543 10547 10550 10552 10552 10553 10555 10558 10560 10561 10562 10563 10564 10565 10566 10567 10568 10569 10570 10571 10572 10574 10574 10575 10576 10577 10578 10579 10579 10579 10579 10579 10580 10580 10579 10579 10579 10579 10579 10579 10579 10579 10579 10579 10579 10580 10580 10580 10581 10582 10582 10581 10580
10432 10435 10438 10440 10444 10449 10455 10461 10467 10472 10476 10480 10484 10487 10490 10494 10495 10495 10496 10498 10501 10504 10507 10510 10513 10515 10517 10520 10522 10525 10527 10529 10532 10536 10540 10543 10545 10545 10547 10549 10551 10553 10555 10557 10557 10559 10560 10560 10560 10560 10561 10562 10564 10564 10565 10567 10568 10570 10571 10572 10572 10573 10573 10573 10573 10574 10573 10573 10573 10573 10572 10572 10572 10572 10572 10572 10572 10572 10573 10573 10574 10574 10574 10574 10574 10574
10424 10426 10429 10432 10435 10440 10446 10452 10459 10464 10468 10471 10475 10479 10482 10486 10489 10490 10490 10492 10494 10497 10500 10503 10505 10509 10511 10514 10516 10518 10519 10521 10525 10529 10534 10537 10539 10540 10540 10542 10544 10546 10549 10552 10552 10553 10554 10554 10554 10554 10555 10555 10556 10556 10557 10559 10562 10564 10565 10564 10565 10565 10566 10567 10567 10567 10567 10567 10567 10566 10565 10565 10565 10565 10565 10565 10565 10565 10566 10567 10567 10567 10567 10567 10567 10567
10414 10417 10420 10423 10427 10432 10437 10444 10449 10455 10459 10462 10465 10470 10474 10478 10482 10484 10485 10485 10487 10490 10492 10495 10499 10502 10504 10507 10510 10512 10514 10515 10519 10522 10527 10530 10532 10534 10535 10535 10537 10540 10543 10545 10545 10546 10547 10547 10548 10549 10549 10549 10549 10549 10550 10551 10554 10556 10556 10555 10556 10557 10559 10559 10560 10560 10560 10560 10559 10559 10559 10559 10559 10558 10558 10558 10559 10559 10560 10560 10560 10560 10560 10560 10560 10560
10405 10409 10411 10414 10419 10424 10429 10434 10440 10445 10449 10453 10457 10461 10465 10470 10474 10477 10479 10480 10481 10483 10485 10488 10491 10494 10497 10500 10504 10506 10508 10510 10513 10516 10519 10522 10525 10527 10529 10530 10531 10533 10535 10537 10539 10539 10540 10540 10542 10542 10542 10542 10542 10544 10544 10545 10546 10547 10547 10547 10548 10550 10551 10552 10552 10552 10552 10552 10552 10552 10551 10551 10551 10551 10552 10552 10552 10553 10554 10554 10554 10554 10554 10554 10554 10553
10396 10399 10402 10405 10410 10414 10419 10424 10430 10435 10440 10444 10448 10452 10457 10461 10465 10469 10472 10474 10476 10477 10479 10481 10484 10487 10490 10494 10497 10500 10502 10504 10507 10509 10512 10514 10517 10520 10522 10524 10525 10525 10527 10530 10532 10533 10534 10534 10534 10534 10535 10536 10537 10539 10540 10540 10540 10540 10539 10540 10542 10543 10544 10544 10544 10545 10545 10545 10545 10544 10544 10544 10544 10545 10545 10545 10546 10546 10547 10547 10547 10547 10548 10548 10547 10547
10387 10390 10393 10397 10401 10405 10409 10414 10419 10425 10430 10435 10440 10444 10449 10453 10457 10461 10465 10468 10470 10472 10473 10474 10477 10480 10483 10486 10490 10493 10495 10498 10500 10502 10505 10507 10510 10512 10515 10517 10518 10519 10520 10523 10525 10525 10526 10526 10527 10527 10529 10530 10531 10532 10534 10534 10534 10534 10534 10535 10535 10535 10535 10535 10537 10537 10537 10537 10537 10537 10537 10537 10537 10537 10538 10539 10539 10539 10540 10540 10540 10540 10540 10541 10541 10540
10378 10382 10385 10388 10392 10395 10400 10405 10410 10415 10422 10427 10432 10437 10440 10444 10449 10452 10456 10460 10463 10465 10467 10469 10470 10473 10476 10479 10482 10485 10489 10491 10494 10496 10499 10501 10503 10505 10508 10510 10512 10513 10514 10515 10517 10517 10518 10519 10520 10522 10524 10525 10525 10526 10527 10527 10527 10528 10529 10529 10528 10527 10527 10529 10530 10530 10530 10530 10529 10529 10529 10530 10530 10530 10531 10532 10532 10532 10532 10533 10534 10534 10533 10533 10534 10533
10370 10373 10375 10379 10382 10387 10392 10397 10402 10407 10413 10419 10424 10428 10431 10435 10439 10443 10447 10451 10455 10458 10460 10462 10464 10466 10469 10471 10474 10477 10480 10484 10487 10489 10492 10494 10496 10499 10501 10503 10505 10507 10508 10509 10510 10510 10509 10510 10513 10516 10517 10519 10520 10520 10521 10521 10520 10521 10522 10522 10522 10521 10522 10522 10522 10523 10523 10523 10523 10522 10522 10523 10524 10524 10524 10525 10525 10525 10525 10526 10527 10527 10526 10526 10526 10525
10360 10364 10366 10370 10374 10379 10384 10389 10394 10399 10404 10409 10414 10418 10422 10425 10429 10434 10438 10442 10447 10450 10454 10455 10458 10460 10462 10464 10465 10469 10472 10475 10479 10482 10485 10487 10490 10492 10494 10497 10499 10500 10502 10503 10503 10502 10500 10502 10505 10509 10511 10512 10514 10514 10514 10514 10514 10514 10515 10515 10516 10517 10517 10515 10514 10514 10516 10517 10517 10516 10516 10516 10517 10517 10517 10518 10519 10519 10519 10519 10519 10519 10519 10519 10519 10519
10352 10355 10359 10363 10367 10372 10376 10380 10385 10390 10395 10400 10404 10408 10412 10417 10421 10425 10430 10434 10437 10441 10445 10449 10451 10454 10456 10457 10459 10461 10464 10468 10471 10474 10477 10480 10483 10485 10488 10490 10492 10494 10495 10497 10496 10494 10492 10494 10496 10500 10504 10505 10507 10508 10508 10507 10507 10507 10507 10509 10510 10510 10510 10508 10507 10508 10510 10510 10510 10509 10509 10510 10510 10510 10511 10511 10512 10512 10512 10512 10512 10512 10512 10512 10512 10512
10344 10348 10352 10356 10360 10364 10368 10372 10377 10381 10385 10390 10395 10399 10403 10408 10412 10417 10421 10424 10428 10432 10436 10440 10444 10448 10450 10451 10452 10454 10457 10460 10464 10467 10470 10473 10475 10479 10481 10484 10486 10488 10489 10490 10489 10487 10486 10486 10488 10491 10495 10498 10500 10500 10500 10499 10499 10499 10500 10502 10504 10504 10504 10504 10503 10504 10504 10503 10502 10502 10502 10503 10504 10505 10505 10504 10504 10504 10505 10505 10505 10505 10505 10505 10505 10505
10337 10341 10345 10349 10352 10356 10360 10364 10368 10372 10377 10382 10387 10390 10395 10399 10404 10408 10412 10415 10419 10422 10427 10432 10437 10440 10443 10444 10445 10447 10450 10453 10456 10459 10462 10465 10468 10471 10474 10477 10479 10480 10482 10483 10483 10482 10480 10479 10480 10484 10487 10490 10492 10492 10491 10490 10490 10492 10494 10495 10497 10499 10499 10499 10499 10497 10497 10497 10496 10496 10496 10497 10497 10498 10497 10496 10496 10497 10498 10499 10499 10499 10499 10499 10499 10499
10330 10334 10337 10341 10345 10349 10352 10356 10360 10365 10369 10374 10377 10381 10385 10390 10395 10399 10402 10405 10409 10414 10418 10422 10427 10432 10434 10437 10439 10441 10444 10446 10449 10451 10454 10457 10460 10464 10466 10469 10471 10473 10475 10475 10476 10475 10474 10473 10474 10476 10479 10482 10484 10484 10482 10481 10482 10484 10487 10489 10491 10493 10494 10493 10492 10490 10490 10490 10490 10490 10489 10490 10491 10490 10489 10489 10489 10490 10490 10491 10492 10492 10492 10492 10492 10492
10324 10327 10331 10335 10338 10342 10345 10349 10352 10357 10360 10364 10368 10372 10377 10381 10385 10390 10393 10397 10400 10404 10409 10414 10418 10422 10425 10429 10431 10434 10437 10439 10441 10443 10446 10449 10452 10455 10459 10461 10464 10465 10467 10468 10469 10468 10467 10466 10467 10469 10472 10474 10475 10475 10473 10472 10474 10476 10480 10483 10485 10487 10487 10485 10484 10484 10484 10485 10485 10484 10484 10484 10484 10483 10482 10482 10482 10483 10483 10483 10484 10485 10485 10485 10485 10485
10317 10321 10325 10328 10331 10334 10337 10340 10344 10349 10352 10355 10360 10364 10369 10373 10377 10380 10384 10387 10392 10396 10400 10404 10408 10412 10416 10419 10423 10427 10430 10432 10434 10437 10439 10442 10445 10448 10450 10454 10455 10458 10459 10460 10460 10460 10460 10459 10460 10462 10464 10467 10468 10467 10465 10464 10465 10469 10473 10477 10479 10479 10479 10478 10477 10477 10478 10479 10478 10477 10477 10477 10476 10475 10475 10476 10476 10476 10475 10475 10477 10477 10477 10477 10477 10477
10310 10314 10317 10320 10324 10327 10330 10333 10337 10340 10344 10348 10352 10356 10360 10364 10368 10372 10375 10379 10384 10387 10391 10395 10399 10402 10406 10410 10414 10418 10422 10425 10427 10430 10432 10435 10437 10440 10443 10445 10448 10450 10451 10452 10452 10453 10453 10453 10454 10454 10456 10459 10460 10460 10459 10457 10457 10460 10465 10469 10470 10471 10471 10470 10470 10470 10471 10472 10471 10470 10470 10470 10469 10469 10469 10470 10470 10469 10468 10469 10469 10469 10470 10470 10470 10470
10304 10307 10310 10314 10317 10319 10322 10326 10330 10334 10337 10340 10344 10349 10352 10356 10360 10364 10367 10371 10375 10379 10382 10385 10389 10394 10397 10401 10405 10409 10413 10416 10419 10422 10425 10427 10430 10433 10435 10437 10440 10442 10444 10444 10445 10445 10445 10446 10447 10447 10448 10449 10451 10452 10452 10451 10451 10453 10456 10459 10460 10462 10462 10463 10464 10464 10464 10465 10465 10464 10464 10463 10462 10462 10462 10463 10463 10462 10462 10461 10461 10462 10462 10462 10462 10463